Stations météo

Publicité
Gourdon, France (7535): Température de l'air & dewpoint: 18.09.2020 09:00:00 - 24.09.2020 09:00:00 (CEST)Gourdon, France (7535): Température de l'air 5cm: 18.09.2020 09:00:00 - 24.09.2020 09:00:00 (CEST)Gourdon, France (7535): Température de l'air -20cm & Température de l'air -100cm: 18.09.2020 09:00:00 - 24.09.2020 09:00:00 (CEST)Gourdon, France (7535): Vitesse du vent & gusts: 18.09.2020 09:00:00 - 24.09.2020 09:00:00 (CEST)Gourdon, France (7535): Direction du vent: 18.09.2020 09:00:00 - 24.09.2020 09:00:00 (CEST)Gourdon, France (7535): reduced air pressure: 18.09.2020 09:00:00 - 24.09.2020 09:00:00 (CEST)Gourdon, France (7535): visibility: 18.09.2020 09:00:00 - 24.09.2020 09:00:00 (CEST)Gourdon, France (7535): Ensoleillement: 18.09.2020 09:00:00 - 24.09.2020 09:00:00 (CEST)Gourdon, France (7535): Quantités de précipitations: 18.09.2020 09:00:00 - 24.09.2020 09:00:00 (CEST)
Date & Time tt [°C] td [°C] tt 5cm [°C] tt -20cm [°C] tt -100cm [°C] ff [km/h] ff [knt] fx [km/h] fx [knt] dd ppp [hPa] vv [km] sd [min] rr [mm]
24.09.2020 09:00:00 15,0 14,4 14,5 20,1 21,0 12 6 29 16 S 1011,0 7 0 1,2
24.09.2020 08:00:00 15,0 14,0 14,5 20,2 21,0 13 7 23 13 S 1011,0 12 0 0,4
24.09.2020 07:00:00 15,2 13,6 14,3 20,3 21,0 11 6 19 10 S 1011,0 20 0 0,0
24.09.2020 06:00:00 15,5 14,2 14,9 20,4 21,0 10 6 19 10 S 1011,4 20 0 0,0
24.09.2020 05:00:00 15,9 14,6 15,0 20,5 21,0 10 5 18 10 S 1011,4 20 0 0,0
24.09.2020 04:00:00 16,2 14,6 15,7 20,6 21,0 8 4 19 10 S 1011,9 20 0 0,0
24.09.2020 03:00:00 16,3 15,0 14,7 20,8 21,0 11 6 19 10 S 1012,1 20 0 0,0
24.09.2020 02:00:00 14,9 14,3 13,4 20,9 21,0 6 3 12 6 S 1012,2 18 0 0,0
24.09.2020 01:00:00 15,0 14,4 13,7 21,0 21,0 8 4 11 6 S 1012,2 20 0 0,0
24.09.2020 00:00:00 15,7 14,6 14,5 21,2 21,0 5 3 9 5 S 1012,0 20 0 0,0
23.09.2020 23:00:00 17,0 15,0 15,8 21,3 21,0 4 2 14 8 SSW 1011,8 20 0 0,0
23.09.2020 22:00:00 17,3 15,3 16,4 21,4 21,0 6 4 16 9 SSW 1011,2 20 0 0,0
23.09.2020 21:00:00 17,9 15,7 16,9 21,4 21,1 7 4 15 8 SSW 1010,4 20 0 0,0
23.09.2020 20:00:00 18,5 15,6 17,2 21,4 21,1 6 3 19 11 SW 1009,4 15 0 0,0
23.09.2020 19:00:00 18,7 15,9 18,3 21,3 21,0 14 7 23 12 S 1008,5 20 4 0,2
23.09.2020 18:00:00 19,4 16,6 18,0 21,2 21,1 8 4 29 15 S 1008,8 14 0 1,0
23.09.2020 17:00:00 24,3 14,7 25,2 21,0 21,1 6 3 26 14 SW 1008,1 20 23 0,0
23.09.2020 16:00:00 23,7 14,4 25,7 20,7 21,1 15 8 30 16 SSW 1008,3 20 23 0,0
23.09.2020 15:00:00 22,6 14,7 25,2 20,5 21,2 12 7 25 13 SSW 1009,1 19 13 0,0
23.09.2020 14:00:00 22,5 14,6 28,4 20,2 21,1 14 8 27 14 S 1009,4 20 60 0,0
23.09.2020 13:00:00 21,9 15,3 27,2 20,1 21,1 14 7 23 13 S 1010,0 20 60 0,0
23.09.2020 12:00:00 20,2 16,0 22,8 20,0 21,1 13 7 26 14 SE 1010,5 20 51 0,0
23.09.2020 11:00:00 18,1 15,5 17,0 20,0 21,2 14 7 26 14 SE 1011,1 20 26 0,0
23.09.2020 10:00:00 15,9 15,6 15,2 20,2 21,2 11 6 22 12 SE 1011,3 8 0 0,0
23.09.2020 09:00:00 14,7 14,4 13,0 20,3 21,2 8 4 15 8 ESE 1011,5 0,9 1 0,2
23.09.2020 08:00:00 13,5 13,2 11,7 20,5 21,2 8 5 13 7 ESE 1011,6 8 0 0,0
23.09.2020 07:00:00 13,4 13,1 11,5 20,6 21,2 5 3 8 5 ESE 1011,9 1,6 0 0,0
23.09.2020 06:00:00 13,3 12,8 12,5 20,8 21,2 7 4 10 5 SE 1011,8 2,7 0 0,0
23.09.2020 05:00:00 13,9 13,4 12,7 20,9 21,2 6 4 9 5 ESE 1011,9 0,9 0 0,0
23.09.2020 04:00:00 14,7 14,2 13,7 21,0 21,2 6 3 8 4 SE 1012,4 0,2 0 0,0
23.09.2020 03:00:00 15,6 15,0 14,4 21,2 21,2 5 3 7 4 SE 1012,7 16 0 0,0
23.09.2020 02:00:00 15,9 15,3 15,4 21,3 21,2 6 3 8 4 SE 1013,0 17 0 0,0
23.09.2020 01:00:00 15,9 15,3 15,5 21,4 21,2 5 3 8 4 SSE 1013,3 16 0 0,0
23.09.2020 00:00:00 15,7 15,2 15,3 21,5 21,2 6 4 10 6 SE 1013,4 17 0 -
22.09.2020 23:00:00 15,7 15,1 15,1 21,6 21,2 6 4 8 4 SE 1013,4 9 0 0,0
22.09.2020 22:00:00 16,3 15,5 15,2 21,7 21,2 6 3 7 4 SE 1013,1 9 0 0,0
22.09.2020 21:00:00 17,3 15,6 15,4 21,7 21,2 4 2 6 3 SE 1012,8 20 0 0,0
22.09.2020 20:00:00 18,7 15,4 17,8 21,7 21,3 3 1 10 5 WNW 1012,4 20 18 0,0
22.09.2020 19:00:00 19,6 15,9 20,2 21,7 21,3 4 2 14 8 WNW 1012,3 20 0 0,0
22.09.2020 18:00:00 20,0 15,4 21,6 21,5 21,3 8 4 20 11 NW 1012,2 20 0 0,0
22.09.2020 17:00:00 20,6 15,8 22,8 21,4 21,3 10 5 21 11 NW 1012,4 20 5 0,0
22.09.2020 16:00:00 20,4 16,6 24,4 21,2 21,3 7 4 21 12 NW 1013,0 19 39 0,2
22.09.2020 15:00:00 20,5 16,9 21,8 21,1 21,3 5 3 13 7 W 1013,3 20 4 0,0
22.09.2020 14:00:00 19,2 16,4 21,7 21,0 21,3 4 2 10 5 NW 1013,8 20 0 0,0
22.09.2020 13:00:00 18,7 16,3 20,0 20,9 21,3 0 0 6 4 N 1014,2 20 0 0,0
22.09.2020 12:00:00 18,4 16,4 20,0 20,9 21,3 2 1 5 3 SSE 1014,5 20 0 0,0
22.09.2020 11:00:00 17,2 16,7 18,0 21,0 21,3 2 1 7 4 NNE 1014,7 13 0 0,0
22.09.2020 10:00:00 16,6 16,1 16,7 21,0 21,3 3 2 6 4 N 1014,7 1,8 0 0,0
22.09.2020 09:00:00 16,4 15,9 16,3 21,1 21,3 0 0 5 3 N 1014,7 3,2 0 0,0
22.09.2020 08:00:00 16,2 15,7 16,2 21,2 21,3 2 1 6 4 S 1014,7 13 0 0,0
22.09.2020 07:00:00 16,2 15,7 16,2 21,3 21,3 0 0 3 1 N 1014,5 10 0 0,0
22.09.2020 06:00:00 16,2 15,7 16,2 21,4 21,3 0 0 6 3 N 1014,9 8 0 0,0
22.09.2020 05:00:00 16,2 15,7 16,1 21,4 21,3 4 2 7 4 SSW 1015,0 8 0 0,0
22.09.2020 04:00:00 16,1 15,6 16,0 21,6 21,3 2 1 4 2 S 1015,2 0,6 0 0,0
22.09.2020 03:00:00 16,3 15,8 16,4 21,6 21,3 0 0 3 2 N 1015,7 6 0 0,0
22.09.2020 02:00:00 16,3 15,8 16,5 21,7 21,3 0 0 6 4 N 1016,2 1,3 0 0,0
22.09.2020 01:00:00 16,4 15,9 16,0 21,9 21,3 2 1 5 3 WNW 1016,4 2,1 0 0,0
22.09.2020 00:00:00 16,5 16,0 16,4 22,0 21,4 3 2 6 3 S 1016,4 4,1 0 0,4
21.09.2020 23:00:00 16,5 15,9 16,3 22,1 21,4 0 0 5 3 N 1016,6 19 0 0,2
21.09.2020 22:00:00 16,3 15,7 16,1 22,2 21,4 0 0 7 4 N 1016,6 20 0 0,8
21.09.2020 21:00:00 16,1 15,3 16,2 22,3 21,4 5 3 10 6 N 1016,0 20 0 1,2
21.09.2020 20:00:00 17,2 16,6 17,0 22,3 21,4 4 2 19 10 WSW 1015,7 14 0 3,5
21.09.2020 19:00:00 18,1 16,3 17,4 22,2 21,4 10 5 22 12 NW 1016,0 13 1 1,0
21.09.2020 18:00:00 19,3 16,9 18,8 22,0 21,4 10 6 22 12 S 1015,0 16 1 1,8
21.09.2020 17:00:00 23,4 15,4 26,7 21,7 21,4 6 3 15 8 SW 1014,5 20 31 0,0
21.09.2020 16:00:00 22,8 15,9 24,4 21,4 21,4 4 2 16 9 SSW 1014,7 20 29 0,0
21.09.2020 15:00:00 23,3 16,3 30,4 21,3 21,5 6 3 13 7 W 1015,1 18 54 0,0
21.09.2020 14:00:00 21,2 15,7 23,7 21,1 21,4 2 1 8 4 W 1016,1 20 8 0,0
21.09.2020 13:00:00 20,1 16,5 21,7 21,0 21,4 2 1 10 6 WNW 1016,7 20 2 0,0
21.09.2020 12:00:00 19,0 16,8 18,9 21,0 21,4 4 2 11 6 WNW 1016,9 20 7 0,0
21.09.2020 11:00:00 17,4 16,6 18,3 21,0 21,5 4 2 8 4 NNW 1017,1 12 0 0,0
21.09.2020 10:00:00 17,2 16,7 17,3 21,1 21,5 2 1 5 3 NNW 1016,8 6 0 0,0
21.09.2020 09:00:00 17,0 16,5 17,2 21,1 21,5 2 1 6 3 NNW 1016,7 4,7 0 0,0
21.09.2020 08:00:00 17,1 16,6 17,1 21,2 21,5 0 0 5 3 N 1016,4 3,2 0 0,0
21.09.2020 07:00:00 17,1 16,6 17,0 21,2 21,5 0 0 5 3 N 1016,0 4,8 0 0,0
21.09.2020 06:00:00 17,2 16,7 17,2 21,3 21,5 2 1 5 3 W 1015,9 1,5 0 0,0
21.09.2020 05:00:00 17,3 16,8 17,0 21,4 21,5 0 0 8 4 N 1015,8 0,4 0 0,0
21.09.2020 04:00:00 17,1 16,6 16,9 21,5 21,5 5 3 9 5 SSW 1016,0 4,2 0 0,0
21.09.2020 03:00:00 17,0 16,5 16,1 21,6 21,5 4 2 10 5 SSW 1016,4 8 0 0,0
21.09.2020 02:00:00 16,9 16,4 16,0 21,7 21,5 5 3 9 5 S 1016,3 5 0 0,0
21.09.2020 01:00:00 17,1 16,5 16,3 21,8 21,5 4 2 6 3 SSE 1016,3 7 0 0,0
21.09.2020 00:00:00 17,5 16,7 17,1 21,9 21,6 0 0 11 6 N 1016,3 8 0 6,5
20.09.2020 23:00:00 17,5 16,5 17,1 22,0 21,6 2 1 6 3 ESE 1016,4 20 0 0,8
20.09.2020 22:00:00 17,5 16,2 16,6 22,1 21,6 4 2 6 4 SE 1016,2 20 0 0,0
20.09.2020 21:00:00 18,1 16,1 16,9 22,1 21,6 2 1 11 6 E 1015,5 20 0 0,0
20.09.2020 20:00:00 18,9 16,1 18,1 22,1 21,5 5 3 10 5 SSW 1014,9 20 0 0,0
20.09.2020 19:00:00 19,9 15,5 20,4 22,1 21,6 5 3 13 7 S 1014,4 20 3 0,0
20.09.2020 18:00:00 20,2 15,6 21,3 22,0 21,6 8 5 23 13 S 1014,1 20 25 0,0
20.09.2020 17:00:00 21,0 15,8 21,8 21,8 21,6 9 5 20 11 S 1014,0 20 11 0,0
20.09.2020 16:00:00 21,2 15,9 23,4 21,7 21,6 10 5 24 13 S 1014,0 20 7 0,0
20.09.2020 15:00:00 20,8 15,8 22,6 21,6 21,6 10 6 17 9 S 1014,4 20 17 0,0
20.09.2020 14:00:00 19,9 16,1 21,7 21,5 21,6 6 4 19 11 SSE 1015,0 20 10 0,0
20.09.2020 13:00:00 19,3 16,7 18,6 21,5 21,6 10 6 19 11 S 1015,3 20 0 0,0
20.09.2020 12:00:00 17,3 16,3 17,0 21,6 21,6 6 4 12 7 S 1015,7 20 0 0,2
20.09.2020 11:00:00 16,7 16,1 16,3 21,6 21,6 8 4 18 10 S 1015,6 2,2 0 0,6
20.09.2020 10:00:00 16,9 15,6 16,6 21,8 21,6 11 6 17 9 S 1015,3 20 0 0,0
20.09.2020 09:00:00 16,6 15,6 15,9 21,9 21,7 7 4 13 7 S 1015,0 19 0 0,0
20.09.2020 08:00:00 16,1 15,3 15,3 22,1 21,6 6 4 15 8 S 1014,7 20 0 0,0
20.09.2020 07:00:00 16,1 15,3 15,3 22,2 21,6 10 5 19 11 S 1014,6 20 0 0,0
20.09.2020 06:00:00 16,2 15,4 15,6 22,4 21,6 13 7 22 12 S 1014,4 20 0 0,0
20.09.2020 05:00:00 16,3 15,7 15,7 22,5 21,6 8 5 13 7 S 1014,3 20 0 0,0
20.09.2020 04:00:00 16,4 15,8 16,0 22,6 21,6 4 2 9 5 SE 1014,6 20 0 0,4
20.09.2020 03:00:00 16,5 15,9 16,1 22,7 21,6 8 4 14 8 S 1014,7 12 0 3,0
20.09.2020 02:00:00 16,7 15,4 16,1 22,9 21,6 9 5 16 9 S 1014,2 7 0 2,4
20.09.2020 01:00:00 16,7 15,1 15,5 23,0 21,6 4 2 9 5 SSW 1014,3 20 0 0,0
20.09.2020 00:00:00 17,1 13,6 15,7 23,2 21,6 2 1 9 5 NNW 1014,0 20 0 0,0
19.09.2020 23:00:00 17,4 13,9 16,6 23,2 21,6 8 4 24 13 E 1013,2 20 0 0,0
19.09.2020 22:00:00 19,0 15,1 18,0 23,3 21,6 10 5 23 12 E 1012,9 20 0 0,0
19.09.2020 21:00:00 19,6 16,1 18,5 23,3 21,6 7 4 22 12 NE 1012,4 20 0 0,0
19.09.2020 20:00:00 22,7 16,5 19,3 23,3 21,6 10 6 22 12 SSE 1010,8 20 0 0,2
19.09.2020 19:00:00 25,2 13,1 24,5 23,2 21,6 4 2 16 9 SSW 1010,2 20 6 0,0
19.09.2020 18:00:00 26,6 12,6 28,5 23,1 21,6 8 4 19 10 SSW 1009,3 20 21 0,0
19.09.2020 17:00:00 27,3 13,6 29,2 22,9 21,6 0 0 16 8 N 1009,6 20 44 0,0
19.09.2020 16:00:00 26,4 15,4 32,2 22,8 21,6 8 5 19 10 E 1010,4 20 60 0,0
19.09.2020 15:00:00 25,0 17,2 22,3 22,7 21,6 4 2 11 6 S 1011,3 20 23 0,0
19.09.2020 14:00:00 21,5 18,3 20,2 22,7 21,6 7 4 24 13 E 1011,9 20 0 0,4
19.09.2020 13:00:00 23,5 16,0 25,4 22,6 21,6 16 9 28 15 SSW 1012,2 20 0 0,0
19.09.2020 12:00:00 24,3 16,3 26,4 22,6 21,6 15 8 28 15 S 1012,4 20 0 0,0
19.09.2020 11:00:00 24,4 16,4 26,6 22,6 21,6 12 6 19 11 SSE 1012,5 20 41 0,0
19.09.2020 10:00:00 23,2 17,6 23,1 22,7 21,6 4 2 11 6 ESE 1012,1 19 56 0,0
19.09.2020 09:00:00 20,9 16,3 18,3 22,9 21,6 5 3 14 7 ESE 1012,1 20 27 0,0
19.09.2020 08:00:00 19,4 16,1 17,2 22,9 21,6 9 5 21 11 ESE 1012,2 20 0 0,0
19.09.2020 07:00:00 19,3 16,1 17,5 23,0 21,6 8 4 13 7 S 1012,4 19 0 0,2
19.09.2020 06:00:00 19,6 16,1 17,2 23,2 21,6 3 2 18 10 SSE 1012,3 20 0 0,0
19.09.2020 05:00:00 18,9 15,9 17,2 23,2 21,6 10 6 24 13 SE 1012,3 20 0 0,4
19.09.2020 04:00:00 19,9 15,3 17,7 23,3 21,6 10 5 19 10 ESE 1012,3 20 0 0,0
19.09.2020 03:00:00 20,5 15,1 17,4 23,4 21,6 13 7 28 15 SSE 1012,8 20 0 0,0
19.09.2020 02:00:00 22,3 14,2 19,0 23,5 21,6 13 7 26 14 SSE 1012,4 20 0 0,0
19.09.2020 01:00:00 22,6 13,6 21,4 23,6 21,6 10 6 21 12 SSE 1012,5 20 0 0,0
19.09.2020 00:00:00 22,8 13,6 22,0 23,8 21,6 10 6 25 14 SE 1012,7 20 0 0,0
18.09.2020 23:00:00 23,2 13,7 22,2 23,8 21,6 11 6 19 10 SE 1012,7 20 0 0,0
18.09.2020 22:00:00 23,2 13,9 22,2 23,9 21,6 7 4 22 12 E 1012,6 20 0 0,0
18.09.2020 21:00:00 24,1 13,9 23,2 23,9 21,6 9 5 24 13 E 1012,5 20 0 0,0
18.09.2020 20:00:00 24,8 13,7 24,1 23,9 21,6 12 6 28 15 ESE 1012,5 20 0 0,0
18.09.2020 19:00:00 25,0 15,3 21,6 23,8 21,6 5 3 27 14 ESE 1012,7 20 0 0,0
18.09.2020 18:00:00 26,8 14,9 23,5 23,7 21,6 16 9 38 21 S 1012,8 20 0 0,0
18.09.2020 17:00:00 29,8 13,1 - - - 18 10 34 18 S 1011,7 20 - -
18.09.2020 16:00:00 30,6 12,0 32,2 23,3 21,6 18 10 40 22 S 1011,4 20 0 0,0
18.09.2020 15:00:00 31,3 12,1 34,3 23,1 21,6 17 9 42 23 S 1011,3 20 37 0,0
18.09.2020 14:00:00 31,1 13,4 34,6 22,9 21,6 16 9 35 19 S 1011,6 20 26 0,0
18.09.2020 13:00:00 30,4 14,1 33,1 22,7 21,5 18 10 42 23 SSE 1011,8 20 48 0,0
18.09.2020 12:00:00 28,7 14,5 31,1 22,7 21,6 16 8 41 22 SSE 1012,5 20 47 0,0
18.09.2020 11:00:00 26,7 14,5 28,2 22,8 21,6 23 12 43 23 SE 1012,4 20 60 0,0
18.09.2020 10:00:00 24,8 14,0 22,7 22,9 21,5 15 8 41 22 SE 1012,4 20 54 0,0
18.09.2020 09:00:00 21,3 13,0 20,4 23,0 21,5 10 6 21 12 ESE 1012,5 20 37 0,0

tt = Température de l'air
td = dewpoint
tt 5cm = Température de l'air 5cm
tt -20cm = Température de l'air -20cm
tt -100cm = Température de l'air -100cm
ff = Vitesse du vent
fx = gusts
dd = Direction du vent
ppp = reduced air pressure
vv = visibility
sd = Ensoleillement
rr = Quantités de précipitations

stations d'obs. à proximité